Stations météo

réclame
Mon MeteoGroup
Tortosa, Espagne (8238): Température de l'air & dewpoint: 14.04.2018 22:00:00 - 20.04.2018 22:00:00 (CEST)Tortosa, Espagne (8238): Vitesse du vent: 14.04.2018 22:00:00 - 20.04.2018 22:00:00 (CEST)Tortosa, Espagne (8238): Direction du vent: 14.04.2018 22:00:00 - 20.04.2018 22:00:00 (CEST)Tortosa, Espagne (8238): reduced air pressure: 14.04.2018 22:00:00 - 20.04.2018 22:00:00 (CEST)Tortosa, Espagne (8238): visibility: 14.04.2018 22:00:00 - 20.04.2018 22:00:00 (CEST)Tortosa, Espagne (8238): Quantités de précipitations: 14.04.2018 22:00:00 - 20.04.2018 22:00:00 (CEST)
Date & Time tt [°C] td [°C] ff [km/h] ff [knt] dd ppp [hPa] vv [km] rr [mm]
20.04.2018 22:00:00 - - - - - - - -
20.04.2018 21:00:00 18,2 10,6 8 4 WSW 1021,8 19 0,0
20.04.2018 20:00:00 19,8 10,2 9 5 SE 1021,7 6 -
20.04.2018 19:00:00 21,6 10,7 13 7 SE 1021,8 20 0,0
20.04.2018 18:00:00 23,2 10,3 13 7 SE 1021,8 19 0,0
20.04.2018 17:00:00 24,3 10,9 11 6 SSE 1022,2 6 -
20.04.2018 16:00:00 23,7 10,4 8 4 E 1022,8 20 0,0
20.04.2018 15:00:00 23,6 10,3 11 6 SE 1023,3 20 0,0
20.04.2018 14:00:00 24,3 9,5 13 7 SE 1023,4 6 -
20.04.2018 13:00:00 22,6 10,4 11 6 ESE 1023,7 19 0,0
20.04.2018 12:00:00 22,6 10,7 13 7 ESE 1023,7 17 0,0
20.04.2018 11:00:00 20,9 11,2 5 3 S 1023,5 4,0 -
20.04.2018 10:00:00 17,8 11,8 4 2 NE 1023,5 16 0,0
20.04.2018 09:00:00 13,9 11,2 4 2 N 1023,6 15 0,0
20.04.2018 08:00:00 10,6 9,7 4 2 N 1023,6 3,0 -
20.04.2018 07:00:00 10,2 9,1 2 1 SW 1023,4 8 0,0
20.04.2018 06:00:00 10,7 9,3 4 2 NNW 1023,4 10 0,0
20.04.2018 05:00:00 11,1 9,7 4 2 N 1023,4 8 -
20.04.2018 04:00:00 11,8 10,0 4 2 NNW 1023,6 10 0,0
20.04.2018 03:00:00 12,6 10,8 4 2 N 1024,0 8 0,0
20.04.2018 02:00:00 13,2 11,1 5 3 N 1024,5 9 -
20.04.2018 01:00:00 13,9 11,2 4 2 SSE 1024,7 10 0,0
20.04.2018 00:00:00 14,4 11,2 5 3 SSE 1024,6 12 0,0
19.04.2018 23:00:00 15,3 11,5 8 4 SSW 1024,7 14 -
19.04.2018 22:00:00 15,9 11,3 11 6 SW 1024,4 19 0,0
19.04.2018 21:00:00 17,8 10,7 5 3 SSE 1023,8 20 0,0
19.04.2018 20:00:00 20,4 9,6 5 3 S 1023,6 5 -
19.04.2018 19:00:00 21,9 9,1 9 5 SE 1023,8 20 0,0
19.04.2018 18:00:00 23,7 8,9 11 6 SE 1023,7 20 0,0
19.04.2018 17:00:00 24,2 9,7 8 4 SE 1024,1 5 -
19.04.2018 16:00:00 24,5 9,2 9 5 ESE 1024,6 20 0,0
19.04.2018 15:00:00 24,5 9,2 13 7 SE 1024,9 19 0,0
19.04.2018 14:00:00 23,8 11,5 5 3 SE 1025,1 5 -
19.04.2018 13:00:00 22,4 10,2 9 5 SE 1025,7 20 0,0
19.04.2018 12:00:00 22,9 11,0 8 4 SE 1025,8 20 0,0
19.04.2018 11:00:00 20,9 11,0 5 3 S 1025,7 5 -
19.04.2018 10:00:00 17,9 11,0 2 1 ESE 1025,6 18 0,0
19.04.2018 09:00:00 13,8 9,6 4 2 NNW 1025,9 19 0,0
19.04.2018 08:00:00 11,5 9,4 2 1 N 1025,6 8 -
19.04.2018 07:00:00 10,9 8,6 4 2 NE 1025,1 19 0,0
19.04.2018 06:00:00 11,5 8,5 9 5 NW 1024,9 20 0,0
19.04.2018 05:00:00 11,8 8,6 9 5 NNW 1024,7 20 -
19.04.2018 04:00:00 11,7 9,3 5 3 N 1025,1 15 0,0
19.04.2018 03:00:00 12,7 9,5 5 3 NW 1025,3 16 0,0
19.04.2018 02:00:00 13,6 9,6 8 4 NW 1025,5 18 -
19.04.2018 01:00:00 14,2 10,4 5 3 N 1025,8 15 0,0
19.04.2018 00:00:00 15,3 9,9 2 1 S 1026,0 20 0,0
18.04.2018 23:00:00 15,9 10,2 9 5 SW 1026,0 18 -
18.04.2018 22:00:00 17,0 10,4 8 4 SSW 1025,5 20 0,0
18.04.2018 21:00:00 19,1 8,7 5 3 SSW 1024,8 20 0,0
18.04.2018 20:00:00 21,7 7,9 8 4 SSE 1024,9 8 -
18.04.2018 19:00:00 24,5 8,8 11 6 SSE 1024,5 20 0,0
18.04.2018 18:00:00 26,7 9,1 13 7 S 1024,4 20 0,0
18.04.2018 17:00:00 27,2 10,8 11 6 S 1024,4 10 -
18.04.2018 16:00:00 27,6 9,9 15 8 SE 1024,6 19 0,0
18.04.2018 15:00:00 27,8 10,9 11 6 SE 1024,8 20 0,0
18.04.2018 14:00:00 26,7 11,6 11 6 SSE 1025,1 10 -
18.04.2018 13:00:00 27,1 11,6 15 8 S 1025,4 20 0,0
18.04.2018 12:00:00 25,1 11,6 9 5 S 1025,8 20 0,0
18.04.2018 11:00:00 21,9 11,6 4 2 SSW 1025,8 10 -
18.04.2018 10:00:00 18,8 12,1 2 1 SSE 1025,6 20 0,0
18.04.2018 09:00:00 14,6 10,2 2 1 SSE 1025,4 19 0,0
18.04.2018 08:00:00 10,8 9,2 2 1 NNE 1025,2 8 -
18.04.2018 07:00:00 10,4 8,7 5 3 N 1024,6 20 0,0
18.04.2018 06:00:00 11,0 9,1 9 5 N 1024,6 20 0,0
18.04.2018 05:00:00 11,4 9,5 5 3 N 1024,8 19 -
18.04.2018 04:00:00 12,0 9,7 2 1 E 1024,9 20 0,0
18.04.2018 03:00:00 12,2 9,6 0 0 N 1024,9 18 0,0
18.04.2018 02:00:00 13,3 9,5 2 1 N 1025,1 20 -
18.04.2018 01:00:00 14,6 9,6 2 1 N 1024,8 18 0,0
18.04.2018 00:00:00 15,4 9,3 4 2 NE 1024,5 11 0,0
17.04.2018 23:00:00 16,5 9,4 2 1 S 1024,3 20 -
17.04.2018 22:00:00 17,4 9,3 9 5 SSE 1023,9 20 0,0
17.04.2018 21:00:00 19,3 9,5 8 4 SSE 1023,0 20 0,0
17.04.2018 20:00:00 21,9 8,7 13 7 SSE 1022,4 10 -
17.04.2018 19:00:00 24,7 9,8 9 5 SSE 1022,1 20 0,0
17.04.2018 18:00:00 25,6 9,0 11 6 SE 1021,8 20 0,0
17.04.2018 17:00:00 26,9 8,3 9 5 SE 1021,6 12 -
17.04.2018 16:00:00 26,7 10,0 13 7 SE 1021,8 20 0,0
17.04.2018 15:00:00 27,4 8,8 8 4 NE 1022,2 20 0,0
17.04.2018 14:00:00 26,8 9,2 9 5 NNE 1022,3 12 -
17.04.2018 13:00:00 25,8 10,0 11 6 NNE 1022,8 20 0,0
17.04.2018 12:00:00 23,9 10,2 11 6 NNE 1023,2 20 0,0
17.04.2018 11:00:00 21,5 10,0 11 6 NNE 1023,4 9 -
17.04.2018 10:00:00 18,6 9,9 9 5 N 1023,1 20 0,0
17.04.2018 09:00:00 16,1 9,3 11 6 N 1023,0 20 0,0
17.04.2018 08:00:00 13,3 8,4 13 7 N 1022,2 12 -
17.04.2018 07:00:00 13,0 7,9 11 6 N 1021,6 20 0,0
17.04.2018 06:00:00 13,0 8,1 11 6 N 1021,4 20 0,0
17.04.2018 05:00:00 13,1 8,4 13 7 N 1021,4 20 -
17.04.2018 04:00:00 13,2 8,7 11 6 N 1021,0 20 0,0
17.04.2018 03:00:00 13,2 9,1 13 7 N 1020,8 20 0,0
17.04.2018 02:00:00 13,3 9,4 11 6 N 1020,9 20 -
17.04.2018 01:00:00 13,6 9,4 9 5 N 1020,5 20 0,0
17.04.2018 00:00:00 13,8 9,8 11 6 N 1020,1 20 0,0
16.04.2018 23:00:00 13,8 9,8 9 5 N 1019,8 20 -
16.04.2018 22:00:00 13,8 9,8 9 5 N 1019,2 20 0,0
16.04.2018 21:00:00 14,6 10,4 9 5 N 1018,3 20 0,0
16.04.2018 20:00:00 15,5 10,3 11 6 N 1017,6 12 -
16.04.2018 19:00:00 15,5 10,5 13 7 NNW 1017,4 20 0,0
16.04.2018 18:00:00 14,9 10,1 15 8 NNW 1016,7 20 0,0
16.04.2018 17:00:00 14,9 10,1 13 7 N 1015,9 15 -
16.04.2018 16:00:00 14,3 9,9 15 8 N 1015,6 20 0,0
16.04.2018 15:00:00 13,4 10,0 11 6 NNE 1015,2 20 0,0
16.04.2018 14:00:00 12,7 10,6 11 6 N 1014,5 12 -
16.04.2018 13:00:00 12,0 11,1 15 8 N 1014,2 15 1,0
16.04.2018 12:00:00 12,2 11,1 15 8 N 1013,9 3,3 2,0
16.04.2018 11:00:00 12,6 11,0 15 8 N 1013,1 9 -
16.04.2018 10:00:00 12,5 11,2 13 7 N 1012,8 20 1,0
16.04.2018 09:00:00 14,3 10,3 13 7 NNW 1012,5 20 0,0
16.04.2018 08:00:00 13,4 11,8 4 2 N 1011,7 10 -
16.04.2018 07:00:00 12,7 11,1 5 3 W 1011,0 17 0,0
16.04.2018 06:00:00 13,1 10,5 5 3 S 1011,0 20 0,0
16.04.2018 05:00:00 13,5 10,3 4 2 ESE 1011,5 20 -
16.04.2018 04:00:00 13,3 10,5 2 1 SSE 1011,5 20 0,0
16.04.2018 03:00:00 13,7 10,1 5 3 SE 1011,8 20 0,0
16.04.2018 02:00:00 14,5 10,1 4 2 NNE 1012,4 19 -
16.04.2018 01:00:00 15,0 9,8 8 4 NNW 1012,5 20 0,0
16.04.2018 00:00:00 16,2 9,8 5 3 SSW 1012,7 20 0,0
15.04.2018 23:00:00 17,5 8,9 4 2 SSE 1013,0 18 -
15.04.2018 22:00:00 19,7 8,7 4 2 SSE 1012,9 20 0,0
15.04.2018 21:00:00 20,7 8,3 4 2 E 1012,5 20 0,0
15.04.2018 20:00:00 22,5 8,2 9 5 NNW 1011,8 15 -
15.04.2018 19:00:00 24,6 8,9 13 7 NNW 1011,6 20 0,0
15.04.2018 18:00:00 24,2 8,6 13 7 WNW 1011,5 20 0,0
15.04.2018 17:00:00 23,6 8,8 9 5 WNW 1011,7 15 -
15.04.2018 16:00:00 25,4 8,4 11 6 WNW 1012,0 20 0,0
15.04.2018 15:00:00 25,7 8,2 15 8 W 1012,5 20 0,0
15.04.2018 14:00:00 25,3 7,4 11 6 W 1013,1 12 -
15.04.2018 13:00:00 24,1 6,8 5 3 WSW 1013,7 18 0,0
15.04.2018 12:00:00 23,1 8,0 4 2 SSE 1014,2 - 0,0
15.04.2018 11:00:00 19,1 7,5 5 3 NW 1015,0 12 -
15.04.2018 10:00:00 16,6 8,0 9 5 NNW 1015,2 20 0,0
15.04.2018 09:00:00 14,0 8,0 11 6 WNW 1015,6 20 0,0
15.04.2018 08:00:00 11,6 7,5 9 5 NNW 1015,4 15 -
15.04.2018 07:00:00 11,6 7,7 11 6 N 1015,1 18 0,0
15.04.2018 06:00:00 11,4 8,1 11 6 N 1014,8 20 0,0
15.04.2018 05:00:00 10,7 8,5 9 5 N 1015,4 15 -
15.04.2018 04:00:00 10,9 8,5 11 6 NNW 1015,6 20 0,0
15.04.2018 03:00:00 11,5 8,7 8 4 NNW 1016,4 20 0,0
15.04.2018 02:00:00 12,2 8,8 9 5 N 1017,1 20 -
15.04.2018 01:00:00 12,4 8,9 8 4 NNW 1017,1 20 0,0
15.04.2018 00:00:00 13,3 9,5 8 4 N 1017,2 20 0,0
14.04.2018 23:00:00 13,7 9,7 5 3 N 1017,7 20 -
14.04.2018 22:00:00 14,3 9,7 9 5 NNW 1017,7 20 0,0

tt = Température de l'air
td = dewpoint
ff = Vitesse du vent
dd = Direction du vent
ppp = reduced air pressure
vv = visibility
rr = Quantités de précipitations

stations d'obs. à proximité